Location: Bittelbronn
(48.4454°N, 8.5870°E)
Time: 07:37:45
(UTC+00:00)

deb Kosmos-1275 - Pass Details

Date: 13 October 2024
Orbit: 884 x 986 km, 82.7° (Epoch: 03 November)

Event Time Altitude Azimuth Distance (km) Brightness Sun altitude
Exits shadow 20:52:35 12° 14° (NNE) 2,519 ? -40.2°
Drops below altitude 10° 20:52:55 10° 13° (NNE) 2,643 ? -40.3°
Sets 20:55:23 0° 12° (NNE) 3,575 ? -40.6°
